Regional Weather Roundup
Issued by NWS

Home | Current Version | Previous Version | Graphics & Text | Print | Product List | Glossary Off
Versions: 1 2 3 4 5 6 7 8 9 10 11 12 13 14 15 16 17 18 19 20 21 22 23 24 25 26 27 28 29 30 31 32 33 34 35 36 37 38 39 40 41 42 43 44 45 46 47 48 49 50

000
ASUS43 KMKX 270110
RWRWI

WISCONSIN REGIONAL WEATHER ROUNDUP
NATIONAL WEATHER SERVICE MILWAUKEE/SULLIVAN WI
700 PM CST MON JAN 26 2015

NOTE: "FAIR" INDICATES FEW OR NO CLOUDS BELOW 12,000 FEET WITH NO
SIGNIFICANT WEATHER AND/OR OBSTRUCTIONS TO VISIBILITY.

WIZ001-002-006>008-014>016-023>028-270200-
NORTHWEST WISCONSIN

CITY           SKY/WX    TMP DP  RH WIND       PRES   REMARKS
SUPERIOR ARPT  CLOUDY    28  27  96 CALM      29.88R FOG
ASHLAND        CLOUDY    25  23  92 CALM      29.87R
HAYWARD        CLOUDY    25  23  92 CALM      29.84R FOG
SIREN          CLOUDY    35  32  90 N6        29.86R WCI  30
CUMBERLAND     MIX PCPN  28  27  93 NE3       29.84R
RICE LAKE      LGT SNOW  27  26  94 CALM      29.85R
CHETEK         LGT SNOW  26  25  96 N3        29.84R
LADYSMITH      CLOUDY    24  23  93 CALM      29.85R
EAU CLAIRE     CLOUDY    27  24  89 NE3       29.84R
MENOMONIE      CLOUDY    30  29  96 CALM      29.85R FOG
NEW RICHMOND   CLOUDY    36  31  81 NW6       29.85R WCI  32
OSCEOLA        CLOUDY    38  30  72 NW12      29.88R WCI  31
$$

WIZ003>005-009-010-017-018-270200-
NORTH CENTRAL WISCONSIN

CITY           SKY/WX    TMP DP  RH WIND       PRES   REMARKS
MANITOWISH WTR FLURRIES  19  17  92 CALM      29.82R
ARBOR VITAE    LGT SNOW  22  19  89 CALM      29.82R
WOODRUFF       LGT SNOW  22  19  89 CALM      29.82R
RHINELANDER    LGT SNOW  19  17  92 CALM      29.82R FOG
EAGLE RIVER    FLURRIES  19  16  86 CALM      29.82R
LAND O LAKES   CLOUDY    20  17  88 CALM      29.83R
PHILLIPS       FLURRIES  20  18  90 S3        29.81R
TOMAHAWK       CLOUDY    19  17  90 CALM      29.82S
MEDFORD        LGT SNOW  20  19  93 CALM      29.81S
MERRILL        LGT SNOW  20  19  94 SE3       29.83S
$$

WIZ029-030-035-036-043>047-270200-
CENTRAL WISCONSIN

CITY           SKY/WX    TMP DP  RH WIND       PRES   REMARKS
WAUSAU         LGT SNOW  21  19  92 E5        29.83R FOG     WCI  15
MOSINEE        LGT SNOW  21  21 100 E3        29.85R
MARSHFIELD     CLOUDY    23  21  92 SE3       29.83R FOG
STEVENS POINT  CLOUDY    20  19  96 SE3       29.85S FOG
WAUPACA        FLURRIES  26  23  89 CALM      29.88R
WAUTOMA        FLURRIES  24  23  96 CALM      29.88R
WISC RAPIDS    CLOUDY    23  20  88 SE3       29.86S FOG
CAMP DOUGLAS   LGT SNOW  25  25 100 E3        29.84R FOG
$$

WIZ011>013-019>022-031-037>040-048>050-270200-
NORTHEAST WISCONSIN

CITY           SKY/WX    TMP DP  RH WIND       PRES   REMARKS
ANTIGO         LGT SNOW  19  19  97 SE6       29.83S WCI  11
SHAWANO        FLURRIES  26  22  86 CALM      29.89R
OCONTO         CLOUDY    25  22  88 CALM      29.91R
STURGEON BAY   CLOUDY    25  16  68 SE9       29.93R WCI  15
GREEN BAY      LGT SNOW  25  20  81 S7        29.89R WCI  17
MANITOWOC      FLURRIES  28  23  81 SE12      29.90R WCI  18
APPLETON       LGT SNOW  25  21  86 S6        29.88R WCI  18
CLINTONVILLE   FLURRIES  25  21  86 CALM      29.88R
OSHKOSH        LGT SNOW  24  20  84 S5        29.88R FOG     WCI  18
$$

WIZ032>034-041-042-053>061-270200-
SOUTHWEST WISCONSIN

CITY           SKY/WX    TMP DP  RH WIND       PRES   REMARKS
LA CROSSE      CLOUDY    30  26  85 S3        29.85R
SPARTA         CLOUDY    27  26  99 CALM      29.86R
VIROQUA        CLOUDY    26  26 100 CALM      29.82S
BOSCOBEL       CLOUDY    27  24  89 NE3       29.87R FOG
PRAIRIE DU CHI CLOUDY    29  25  86 E3        29.86R FOG
PLATTEVILLE    CLOUDY    26  25  96 E3        29.85R
$$

WIZ056-057-062-063-064-067-068-270200-
SOUTH CENTRAL WISCONSIN

CITY           SKY/WX    TMP DP  RH WIND       PRES   REMARKS
REEDSBURG      MIX PCPN  24  23  96 S3        29.85R
BARABOO/DELLS  MIX PCPN  23  21  93 S5        29.85R WCI  17
LONE ROCK      LGT SNOW  25  23  92 E3        29.87R FOG
MINERAL POINT  LGT SNOW  27  25  93 SE5       29.84R WCI  21
MADISON        LGT SNOW  24  22  91 S7        29.86R FOG     WCI  16
MIDDLETON      CLOUDY    26  24  93 S6        29.86R WCI  19
WATERTOWN      CLOUDY    24  24 100 S3        29.87R FOG
MONROE         CLOUDY    25  23  93 S6        29.85R FOG     WCI  18
JANESVILLE     CLOUDY    27  25  93 S6        29.88R WCI  20
$$

WIZ051-052-058>065-066-070>072-270200-
SOUTHEAST WISCONSIN

CITY           SKY/WX    TMP DP  RH WIND       PRES   REMARKS
MILWAUKEE      LGT SNOW  26  20  77 SE7       29.90S WCI  18
WAUKESHA       LGT SNOW  23  21  93 SE7       29.88S WCI  15
MILWAUKEE/TIMM FLURRIES  25  19  80 SE6       29.89R WCI  18
RACINE         LGT SNOW  26  22  84 S5        29.91S FOG     WCI  20
BURLINGTON     LGT SNOW  24  23  96 SE6       29.88S WCI  16
KENOSHA        FLURRIES  26  22  84 S6        29.89S WCI  19
FOND DU LAC    CLOUDY    24  21  88 S3        29.88R
SHEBOYGAN      CLOUDY    26  20  77 S6        29.89R WCI  19
WEST BEND      LGT SNOW  25  21  86 SE5       29.88S WCI  19
JUNEAU         MIX PCPN  24  23  95 S7        29.88R WCI  16
$$

LSZ147-162-270200-
LAKE SUPERIOR

STATION/POSITION TIME  TEMP    WIND        PRES    WAVE
                       AIR SEA DIR/SP/G            HT/PER
                 (UTC) (F)     (DEG/KT/KT) (MB)    (FT/S)
DEVILS ISLAND    0100   26     270/  2/  2 1012.6R
PORT WING        0040   27      70/  2/  4 1011.9R
SAXON HARBOR     0000   25        CALM     1010.8R
$$

LMZ867-665-643>646-270200-
LAKE MICHIGAN

STATION/POSITION TIME  TEMP    WIND        PRES    WAVE
                       AIR SEA DIR/SP/G            HT/PER
                 (UTC) (F)     (DEG/KT/KT) (MB)    (FT/S)
NORTHPORT PIER   0020   25     130/ 12/ 18 1013.9R
SISTER BAY       0013   25     140/  9/ 13   N/A
KEWAUNEE LAKESHO 0000   28     170/ 16/ 19 1011.4R
SHEBOYGAN LAKESH 0100   28     150/ 17/ 19 1013.3S
PORT WASHINGTON  0040   28     170/  9/ 13 1013.5R
MILWAUKEE LAKESH 0000   26     190/  7/  8   N/A
KENOSHA   LAKESH 0100   27     170/  8/ 10 1012.9R
$$

TC  - TEMPERATURE IN CELSIUS
VSB - VISIBILITY IN STATUTE MILES
WCI - WIND CHILL INDEX
HX  - HEAT INDEX



USA.gov is the U.S. government's official web portal to all federal, state and local government web resources and services.